Weather History for Bowling Green, KY

Change the Weather History Date:

Friday, February 8, 2013

  Actual Average Record
Temperature  
Mean Temperature 45 °F 38 °F  
Max Temperature 54 °F 48 °F 75 °F (1937)
Min Temperature 35 °F 28 °F -5 °F (1895)
Degree Days  
Heating Degree Days 20 27  
Month to date heating degree days 207 220  
Since 1 July heating degree days 2408 2712  
Cooling Degree Days 0 0  
Month to date cooling degree days 0 0  
Year to date cooling degree days 0 0  
Moisture  
Dew Point 37 °F    
Average Humidity 75    
Maximum Humidity 89    
Minimum Humidity 60    
Precipitation  
Precipitation 0.28 in 0.15 in 1.24 in (1982)
Month to date precipitation 0.38 1.17  
Year to date precipitation 5.87 4.78  
Snow  
Snow 0.00 in 0.20 in 5.30 in (1971)
Month to date snowfall 1.0 1.2  
Since 1 July snowfall 1.3 5.7  
Snow Depth 0.00 in    
Sea Level Pressure  
Sea Level Pressure 30.10 in    
Wind  
Wind Speed 9 mph (NW)    
Max Wind Speed 16 mph    
Max Gust Speed 24 mph    
Visibility 9 miles    
Events Rain    
T = Trace of Precipitation, MM = Missing Value Source: NWS Daily Summary

Daily Weather History Graph

Daily Weather History Graph

Search for Another Location

Airport:

Trip Planner

Search our weather history database for the weather conditions in past years. The results will help you decide how hot, cold, wet, or windy it might be!

Date:

Astronomy

Feb. 08, 2013 Rise Set
Actual Time 6:41 AM CST 5:18 PM CST
Civil Twilight 6:14 AM CST 5:45 PM CST
Nautical Twilight 5:43 AM CST 6:16 PM CST
Astronomical Twilight 5:13 AM CST 6:46 PM CST
Moon 5:08 AM CST (2/8) 3:52 PM CST (2/8)
Length of Visible Light 11h 31m
Length of Day
10h 37m
Waning Crescent, 3% of the Moon is Illuminated
Feb 8
Waning Crescent
Feb 10
New
Feb 17
First Quarter
Feb 25
Full
Mar 4
Last Quarter

Hourly Weather History & Observations

Time (CST) Temp. Windchill Dew Point Humidity Pressure Visibility Wind Dir Wind Speed Gust Speed Precip Events Conditions
12:53 AM 53.1 °F - 46.9 °F 80% 29.87 in 10.0 mi SSW 10.4 mph - 0.00 in Rain Light Rain
1:18 AM 51.8 °F - 48.2 °F 88% 29.90 in 2.5 mi West 8.1 mph - 0.07 in Rain Rain
1:36 AM 51.8 °F - 48.2 °F 88% 29.89 in 3.0 mi SW 5.8 mph - 0.15 in Rain Rain
1:43 AM 51.8 °F - 48.2 °F 88% 29.90 in 5.0 mi WSW 5.8 mph - 0.16 in Rain Rain
1:53 AM 51.1 °F - 48.0 °F 89% 29.89 in 5.0 mi SW 6.9 mph - 0.19 in Rain Light Rain
2:08 AM 51.8 °F - 48.2 °F 88% 29.90 in 4.0 mi West 5.8 mph - 0.03 in Rain Rain
2:47 AM 51.8 °F - 48.2 °F 88% 29.90 in 7.0 mi WNW 6.9 mph - 0.08 in Rain Light Rain
2:48 AM 51.1 °F - 48.9 °F 92% 29.90 in 7.0 mi WNW 5.8 mph - 0.08 in Rain Light Rain
3:11 AM 50.0 °F - 46.4 °F 87% 29.91 in 10.0 mi NW 12.7 mph 19.6 mph 0.01 in   Overcast
3:24 AM 50.0 °F - 44.6 °F 82% 29.91 in 10.0 mi NW 10.4 mph 20.7 mph 0.01 in   Overcast
3:33 AM 48.2 °F - 44.6 °F 87% 29.92 in 10.0 mi NW 9.2 mph - 0.01 in   Overcast
3:45 AM 48.2 °F - 44.6 °F 87% 29.93 in 10.0 mi NNW 9.2 mph - 0.01 in   Overcast
3:53 AM 48.0 °F - 45.0 °F 89% 29.93 in 10.0 mi NW 11.5 mph 17.3 mph 0.01 in   Overcast
4:53 AM 45.0 °F 39.3 °F 41.0 °F 86% 29.98 in 10.0 mi NNW 11.5 mph 19.6 mph N/A   Overcast
5:53 AM 43.0 °F 36.8 °F 39.0 °F 86% 30.02 in 10.0 mi NW 11.5 mph 19.6 mph N/A   Overcast
6:32 AM 42.8 °F 37.5 °F 37.4 °F 81% 30.06 in 10.0 mi NNW 9.2 mph - N/A   Overcast
6:39 AM 42.8 °F 38.0 °F 37.4 °F 81% 30.06 in 10.0 mi NNW 8.1 mph - N/A   Overcast
6:53 AM 42.1 °F 36.6 °F 37.0 °F 82% 30.07 in 10.0 mi NW 9.2 mph - N/A   Overcast
7:53 AM 41.0 °F 34.3 °F 33.1 °F 73% 30.11 in 10.0 mi North 11.5 mph 21.9 mph N/A   Overcast
8:53 AM 39.9 °F 33.4 °F 33.1 °F 77% 30.14 in 10.0 mi NW 10.4 mph 18.4 mph N/A   Overcast
9:53 AM 39.0 °F 31.8 °F 32.0 °F 76% 30.18 in 10.0 mi NW 11.5 mph - N/A   Overcast
10:53 AM 39.9 °F 33.4 °F 32.0 °F 73% 30.20 in 10.0 mi NW 10.4 mph 17.3 mph N/A   Overcast
12:53 PM 39.9 °F 33.9 °F 30.0 °F 68% 30.22 in 10.0 mi North 9.2 mph 17.3 mph N/A   Overcast
1:53 PM 41.0 °F 36.4 °F 30.9 °F 67% 30.22 in 10.0 mi NNW 6.9 mph 17.3 mph N/A   Overcast
2:53 PM 41.0 °F 35.8 °F 28.9 °F 62% 30.23 in 10.0 mi NW 8.1 mph - N/A   Overcast
3:53 PM 39.0 °F 32.8 °F 28.9 °F 67% 30.26 in 10.0 mi North 9.2 mph 17.3 mph N/A   Overcast
4:53 PM 37.9 °F 32.7 °F 28.0 °F 68% 30.29 in 10.0 mi NNE 6.9 mph - N/A   Overcast
5:53 PM 36.0 °F 29.6 °F 27.0 °F 70% 30.31 in 10.0 mi North 8.1 mph - N/A   Overcast
6:53 PM 36.0 °F 30.3 °F 27.0 °F 70% 30.34 in 10.0 mi NNW 6.9 mph - N/A   Overcast
7:53 PM 36.0 °F 29.6 °F 27.0 °F 70% 30.37 in 10.0 mi NNW 8.1 mph - N/A   Overcast
8:53 PM 36.0 °F 33.3 °F 27.0 °F 70% 30.35 in 10.0 mi NNE 3.5 mph - N/A   Overcast
9:53 PM 36.0 °F 30.3 °F 27.0 °F 70% 30.35 in 10.0 mi NNE 6.9 mph - N/A   Overcast
10:53 PM 36.0 °F 29.6 °F 27.0 °F 70% 30.36 in 10.0 mi ENE 8.1 mph - N/A   Overcast
11:53 PM 35.1 °F 26.9 °F 27.0 °F 72% 30.37 in 10.0 mi ENE 11.5 mph - N/A   Overcast